FW1669 Weather Reports


Display with metric or nautical units.
time (UTC)temp
F
wind
direction
speed
MPH
gust
MPH
rain 1hr
in
rain 24hr
in
rain mn
in
humidity
%
barometer
mb
20260504081824 52 0.0 0.0 0.00 0.00 0.00 56 1003.5
20260504081341 52 0.0 0.0 0.00 0.00 0.00 56 1003.7
20260504080839 51 0.0 0.0 0.00 0.00 0.00 57 1003.8
20260504080325 50 0.0 0.0 0.00 0.00 0.00 58 1003.8
20260504070332 52 0.0 0.0 0.00 0.00 0.00 56 1004.5
20260504050335 53 0.0 0.0 0.00 0.00 0.00 54 1005.9
20260504045832 53 0.0 0.0 0.00 0.00 0.00 53 1005.9
20260504045330 53 0.0 0.0 0.00 0.00 0.00 53 1005.9
20260504044848 53 0.0 0.0 0.00 0.00 0.00 53 1006.0
20260504044344 53 0.0 0.0 0.00 0.00 0.00 53 1006.0
20260504043841 54 0.0 0.0 0.00 0.00 0.00 53 1006.1
20260504043338 54 0.0 0.0 0.00 0.00 0.00 52 1006.2
20260504042836 55 0.0 0.0 0.00 0.00 0.00 51 1006.2
20260504042355 55 0.0 0.0 0.00 0.00 0.00 50 1006.2
20260504041831 55 0.0 0.0 0.00 0.00 0.00 49 1006.3
20260504041328 55 0.0 0.0 0.00 0.00 0.00 50 1006.4
20260504040826 54 0.0 0.0 0.00 0.00 0.00 51 1006.5
20260504040329 54 0.0 0.0 0.00 0.00 0.00 51 1006.5
20260504035828 54 0.0 0.0 0.00 0.00 0.00 51 1006.6
20260504035326 55 0.0 0.0 0.00 0.00 0.00 51 1006.6
20260504034824 55 0.0 0.0 0.00 0.00 0.00 49 1006.7
20260504034343 57 0.0 0.0 0.00 0.00 0.00 46 1006.8
20260504033840 58 0.0 0.0 0.00 0.00 0.00 44 1006.8
20260504033343 58 0.0 0.0 0.00 0.00 0.00 44 1006.9
20260504032840 57 0.0 0.0 0.00 0.00 0.00 44 1006.9
20260504032358 57 0.0 0.0 0.00 0.00 0.00 45 1007.0
20260504031855 56 0.0 0.0 0.00 0.00 0.00 47 1007.0
20260504031331 56 0.0 0.0 0.00 0.00 0.00 47 1007.1
20260504030850 57 0.0 0.0 0.00 0.00 0.00 47 1007.1
20260504030332 57 0.0 0.0 0.00 0.00 0.00 47 1007.0
20260504025829 57 0.0 0.0 0.00 0.00 0.00 46 1007.0
20260504025347 58 0.0 0.0 0.00 0.00 0.00 45 1007.1
20260504024843 58 0.0 0.0 0.00 0.00 0.00 44 1007.1
20260504024341 59 0.0 0.0 0.00 0.00 0.00 44 1007.1
20260504023839 59 0.0 0.0 0.00 0.00 0.00 42 1007.0
20260504023336 60 0.0 0.0 0.00 0.00 0.00 41 1006.9
20260504022853 60 0.0 0.0 0.00 0.00 0.00 41 1006.9
20260504022331 60 0.0 0.0 0.00 0.00 0.00 41 1006.9
20260504021828 60 0.0 0.0 0.00 0.00 0.00 42 1006.9
20260504021346 60 0.0 0.0 0.00 0.00 0.00 41 1006.9
20260504020844 60 0.0 0.0 0.00 0.00 0.00 40 1006.9
20260504020326 60 0.0 0.0 0.00 0.00 0.00 40 1006.9
20260504015824 60 0.0 0.0 0.00 0.00 0.00 40 1006.8
20260504015342 60 0.0 0.0 0.00 0.00 0.00 40 1006.9
20260504014840 60 0.0 0.0 0.00 0.00 0.00 40 1006.9
20260504014338 60 0.0 0.0 0.00 0.00 0.00 41 1006.8
20260504013839 60 0.0 0.0 0.00 0.00 0.00 40 1006.8
20260504013337 61 0.0 0.0 0.00 0.00 0.00 40 1006.8
20260504012855 61 0.0 0.0 0.00 0.00 0.00 39 1006.8
20260504012332 62 0.0 0.0 0.00 0.00 0.00 38 1006.8
20260504011850 63 0.0 0.0 0.00 0.00 0.00 38 1006.8
20260504011325 63 0.0 0.0 0.00 0.00 0.00 37 1006.9
20260504010842 64 0.0 0.0 0.00 0.00 0.00 36 1006.8
20260504010326 65 0.0 0.0 0.00 0.00 0.00 35 1006.8
20260504005843 67 0.0 0.0 0.00 0.00 0.00 33 1006.8
20260504005401 68 0.0 0.0 0.00 0.00 0.00 31 1006.8
20260504004859 69 0.0 0.0 0.00 0.00 0.00 30 1006.8
20260504004335 69 0.0 0.0 0.00 0.00 0.00 30 1006.8
20260504003853 70 0.0 0.0 0.00 0.00 0.00 28 1006.8
20260504003329 71 0.0 0.0 0.00 0.00 0.00 28 1006.8
20260504002828 71 0.0 0.0 0.00 0.00 0.00 27 1006.8
20260504002327 72 0.0 0.0 0.00 0.00 0.00 26 1006.8
20260504001825 72 0.0 0.0 0.00 0.00 0.00 26 1006.8
20260504001343 72 0.0 0.0 0.00 0.00 0.00 26 1006.7
20260504000841 73 0.0 0.0 0.00 0.00 0.00 25 1006.7
20260504000325 73 0.0 0.0 0.00 0.00 0.00 26 1006.8
20260503235843 73 0.0 0.0 0.00 0.00 0.00 26 1006.8
20260503235326 73 0.0 0.0 0.00 0.00 0.00 25 1006.8
20260503234844 74 0.0 0.0 0.00 0.00 0.00 24 1006.8
20260503234341 74 0.0 0.0 0.00 0.00 0.00 23 1006.7
20260503233838 74 0.0 0.0 0.00 0.00 0.00 23 1006.8
20260503233337 74 0.0 0.0 0.00 0.00 0.00 23 1006.9
20260503232834 74 0.0 0.0 0.00 0.00 0.00 22 1006.9
20260503232332 74 0.0 0.0 0.00 0.00 0.00 22 1006.9
20260503231829 75 0.0 0.0 0.00 0.00 0.00 22 1006.9
20260503231326 75 0.0 0.0 0.00 0.00 0.00 24 1006.8
20260503230824 75 0.0 0.0 0.00 0.00 0.00 23 1006.9
20260503230351 75 0.0 0.0 0.00 0.00 0.00 23 1006.8
20260503225828 75 0.0 0.0 0.00 0.00 0.00 23 1006.8
20260503225346 76 0.0 0.0 0.00 0.00 0.00 23 1006.8
20260503224843 76 0.0 0.0 0.00 0.00 0.00 24 1006.8
20260503224341 75 0.0 0.0 0.00 0.00 0.00 23 1006.8
20260503223839 75 0.0 0.0 0.00 0.00 0.00 23 1006.8
20260503223336 76 0.0 0.0 0.00 0.00 0.00 23 1006.9
20260503222833 76 0.0 0.0 0.00 0.00 0.00 22 1006.8
20260503222352 76 0.0 0.0 0.00 0.00 0.00 23 1006.8
20260503221833 76 0.0 0.0 0.00 0.00 0.00 22 1006.8
20260503221351 76 0.0 0.0 0.00 0.00 0.00 23 1006.8
20260503220829 76 0.0 0.0 0.00 0.00 0.00 23 1006.8
20260503220332 76 0.0 0.0 0.00 0.00 0.00 24 1006.8
20260503215849 76 0.0 0.0 0.00 0.00 0.00 23 1006.8
20260503215326 76 0.0 0.0 0.00 0.00 0.00 23 1006.8
20260503214843 76 0.0 0.0 0.00 0.00 0.00 23 1006.8
20260503214340 76 0.0 0.0 0.00 0.00 0.00 23 1006.9
20260503213837 77 0.0 0.0 0.00 0.00 0.00 23 1006.8
20260503213356 77 0.0 0.0 0.00 0.00 0.00 22 1006.9
20260503212833 76 0.0 0.0 0.00 0.00 0.00 23 1006.9
20260503212332 76 0.0 0.0 0.00 0.00 0.00 22 1006.9
20260503211830 76 0.0 0.0 0.00 0.00 0.00 22 1006.9
20260503211327 76 0.0 0.0 0.00 0.00 0.00 22 1007.0
20260503210824 76 0.0 0.0 0.00 0.00 0.00 21 1006.9
20260503210330 77 0.0 0.0 0.00 0.00 0.00 21 1007.0
20260503205829 77 0.0 0.0 0.00 0.00 0.00 22 1006.9
20260503205346 76 0.0 0.0 0.00 0.00 0.00 22 1006.9
20260503204843 76 0.0 0.0 0.00 0.00 0.00 23 1007.1
20260503204340 76 0.0 0.0 0.00 0.00 0.00 22 1007.3
20260503203857 76 0.0 0.0 0.00 0.00 0.00 23 1007.3
20260503203333 77 0.0 0.0 0.00 0.00 0.00 23 1007.2
20260503202851 76 0.0 0.0 0.00 0.00 0.00 24 1007.3
20260503202329 76 0.0 0.0 0.00 0.00 0.00 24 1007.5
20260503201847 77 0.0 0.0 0.00 0.00 0.00 24 1007.4
20260503201328 77 0.0 0.0 0.00 0.00 0.00 25 1007.4
20260503200847 76 0.0 0.0 0.00 0.00 0.00 24 1007.4
20260503200346 77 0.0 0.0 0.00 0.00 0.00 24 1007.4
20260503195827 76 0.0 0.0 0.00 0.00 0.00 25 1007.4
20260503195325 76 0.0 0.0 0.00 0.00 0.00 26 1007.4
20260503194843 75 0.0 0.0 0.00 0.00 0.00 27 1007.4
20260503194341 76 0.0 0.0 0.00 0.00 0.00 24 1007.5
20260503193840 75 0.0 0.0 0.00 0.00 0.00 26 1007.5
20260503193338 75 0.0 0.0 0.00 0.00 0.00 26 1007.5
20260503192835 75 0.0 0.0 0.00 0.00 0.00 26 1007.6
20260503192334 76 0.0 0.0 0.00 0.00 0.00 26 1007.6
20260503191831 75 0.0 0.0 0.00 0.00 0.00 27 1007.5
20260503191329 75 0.0 0.0 0.00 0.00 0.00 26 1007.5
20260503190826 75 0.0 0.0 0.00 0.00 0.00 28 1007.5
20260503190330 75 0.0 0.0 0.00 0.00 0.00 28 1007.6
20260503185827 75 0.0 0.0 0.00 0.00 0.00 27 1007.5
20260503185325 75 0.0 0.0 0.00 0.00 0.00 27 1007.5
20260503184902 74 0.0 0.0 0.00 0.00 0.00 28 1007.6
20260503184359 75 0.0 0.0 0.00 0.00 0.00 28 1007.5
20260503183835 74 0.0 0.0 0.00 0.00 0.00 28 1007.6
20260503183333 74 0.0 0.0 0.00 0.00 0.00 28 1007.6
20260503182836 73 0.0 0.0 0.00 0.00 0.00 30 1007.6
20260503182336 74 0.0 0.0 0.00 0.00 0.00 30 1007.6
20260503181833 74 0.0 0.0 0.00 0.00 0.00 29 1007.7
20260503181331 74 0.0 0.0 0.00 0.00 0.00 30 1007.7
20260503180828 74 0.0 0.0 0.00 0.00 0.00 30 1007.6
20260503180331 74 0.0 0.0 0.00 0.00 0.00 31 1007.8
20260503175829 74 0.0 0.0 0.00 0.00 0.00 31 1007.7
20260503175348 74 0.0 0.0 0.00 0.00 0.00 30 1007.7
20260503174825 73 0.0 0.0 0.00 0.00 0.00 31 1007.7
20260503174403 74 0.0 0.0 0.00 0.00 0.00 31 1007.8
20260503173840 73 0.0 0.0 0.00 0.00 0.00 31 1007.6
20260503173357 73 0.0 0.0 0.00 0.00 0.00 32 1007.8
20260503172833 73 0.0 0.0 0.00 0.00 0.00 32 1007.7
20260503172351 72 0.0 0.0 0.00 0.00 0.00 32 1007.9
20260503171830 72 0.0 0.0 0.00 0.00 0.00 32 1007.8
20260503171328 72 0.0 0.0 0.00 0.00 0.00 32 1007.9
20260503170827 72 0.0 0.0 0.00 0.00 0.00 33 1007.8
20260503170332 72 0.0 0.0 0.00 0.00 0.00 32 1008.0
20260503150834 64 0.0 0.0 0.00 0.00 0.00 45 1008.2
20260503150402 63 0.0 0.0 0.00 0.00 0.00 44 1008.3
20260503131346 55 0.0 0.0 0.00 0.00 0.00 52 1008.4
20260503130842 55 0.0 0.0 0.00 0.00 0.00 52 1008.4
20260503130326 54 0.0 0.0 0.00 0.00 0.00 53 1008.4
20260503110325 52 0.0 0.0 0.00 0.00 0.00 54 1008.6